Regional Weather Roundup
Issued by NWS

Home | Current Version | Previous Version | Graphics & Text | Print | Product List | Glossary On
Versions: 1 2 3 4 5 6 7 8 9 10 11 12 13 14 15 16 17 18 19 20 21 22 23 24 25 26 27 28 29 30 31 32 33 34 35 36 37 38 39 40 41 42 43 44 45 46 47 48 49 50
000
ASUS43 KFSD 190610
RWRSD

WEATHER ROUNDUP FOR SOUTH DAKOTA
NATIONAL WEATHER SERVICE SIOUX FALLS SD
100 AM CDT SAT APR 19 2014

NOTE: "FAIR" INDICATES FEW OR NO CLOUDS BELOW 12,000 FEET WITH NO
SIGNIFICANT WEATHER AND/OR OBSTRUCTIONS TO VISIBILITY.


SDZ001>005-009-010-012>017-190700-
NORTHWEST AND NORTH CENTRAL SOUTH DAKOTA

CITY           SKY/WX    TMP DP  RH WIND       PRES   REMARKS
BUFFALO          N/A     42  35  76 NW26G40   29.75R
FAITH            N/A     49  40  71 NW15      29.78R
MOBRIDGE       MOCLDY    56  41  57 SW8       29.62R
$$

SDZ012>016-024>037-041>051-057-063-072>074-190700-
SOUTHWEST AND SOUTH CENTRAL SOUTH DAKOTA

CITY           SKY/WX    TMP DP  RH WIND       PRES   REMARKS
RAPID CTY ARPT CLOUDY    53  39  59 N26G35    29.78R
PIERRE         CLOUDY    67  43  41 S9        29.64R
CUSTER         CLOUDY    54  32  43 W12       29.84R
ELLSWORTH AFB  CLOUDY    53  40  60 N23       29.80R
PHILIP         CLOUDY    58  40  51 NW16G23   29.72R
PINE RIDGE     CLOUDY    62  36  37 SW5       29.79R
SPEARFISH      CLOUDY    45  39  81 NW25G37   29.91R
WINNER         FAIR      66  42  41 S28G39    29.73R
$$

SDZ004>011-016>023-039-040-190700-
NORTHEAST SOUTH DAKOTA

CITY           SKY/WX    TMP DP  RH WIND       PRES   REMARKS
ABERDEEN       LGT RAIN  55  42  61 S17G31    29.72R
WATERTOWN      FAIR      52  37  56 S24G35    29.85R
SISSETON         N/A     45  36  70 S28G35    29.82F
$$

SDZ017-020-022-023-036>040-048>070-190700-
SOUTHEAST SOUTH DAKOTA

CITY           SKY/WX    TMP DP  RH WIND       PRES   REMARKS
SIOUX FALLS    FAIR      55  39  54 S17G26    29.92F
HURON          CLOUDY    59  40  49 S16G22    29.80R
CHAMBERLAIN      N/A     65  43  44 SW15G30   29.77R
MITCHELL       CLOUDY    60  42  51 S28G35    29.80F
YANKTON        FAIR      57  39  51 SE17G25   29.91F
$$

ABBREVIATIONS USED IN REMARKS
   TC - TEMPERATURE IN CELSIUS
  WCI - WIND CHILL INDEX
   HX - HEAT INDEX
  VSB - VISIBILITY




USA.gov is the U.S. government's official web portal to all federal, state and local government web resources and services.